Tracking 30166 objects as of 22-Jan-2025
HD Live streaming from Space Station
objects crossing your sky now

DMSP 5D-2 F11 DEB

Track DMSP 5D-2 F11 DEB now!
10-day predictions


NORAD ID: 28330
Int'l Code: 1991-082AT
Perigee: 735.7 km
Apogee: 848.8 km
Inclination: 99.0 °
Period: 100.6 minutes
Semi major axis: 7163 km
RCS: 0.0098 m2 (small)
Launch date: November 28, 1991
Source: United States (US)
Launch site: AIR FORCE WESTERN TEST RANGE (AFWTR)

Note: This is SATELLITE DEBRIS
Your satellite tracking list
Your tracking list is empty




NASA's NSSDC Master Catalog

Two Line Element Set (TLE):
1 28330U 91082AT  25021.40445621  .00012629  00000-0  45576-2 0  9991
2 28330  98.9654  75.3174 0078986 192.3651 167.5595 14.31983773 66906
Source of the keplerian elements: AFSPC